Location: Bishop�s Knoyle
(51.0728°N, 2.1714°W)
Time: 00:34:38
(UTC+00:00)

ISS - Pass Details

Date: 04 October 2021
Orbit: 417 x 423 km, 51.6° (Epoch: 24 October)

Event Time Altitude Azimuth Distance (km) Brightness Sun altitude
Rises 19:06:01 0° 282° (WNW) 2,365 2.1 -14.4°
Reaches altitude 10° 19:08:33 10° 263° (W) 1,499 0.2 -14.8°
Maximum altitude 19:10:56 18° 218° (SW) 1,101 -1.3 -15.1°
Drops below altitude 10° 19:13:18 10° 173° (S) 1,495 -1.2 -15.5°
Enters shadow 19:13:33 - 170° (S) 1,569 -1.1 -15.5°
